period_start,C,m1,H,J0,J1,J2,J3,J4,J5,JA,JB,JC,JD,JJ,JK,JN,#
2018-02-17 00:01:53,0.10,2.59,0.00,24.19,27.77,30.90,14.00,51.26,1021.50,2022.99,2487.88,2462.26,2753.77,599.94,596.49,25.78,0000 0000 0000 0000 000000
2018-02-17 00:06:55,0.09,2.59,0.00,24.20,27.77,30.91,13.97,51.17,1021.51,2022.99,2486.56,2461.40,2752.69,599.80,596.34,25.83,0000 0000 0000 0000 000000
2018-02-17 00:11:56,0.09,2.59,0.00,24.21,27.77,30.90,14.01,51.10,1021.50,2022.99,2485.13,2460.43,2751.60,600.21,596.60,25.88,0000 0000 0000 0000 000000
2018-02-17 00:16:57,0.07,2.60,0.00,24.21,27.77,30.92,14.02,51.11,1021.51,2022.99,2483.81,2459.71,2750.68,599.91,596.38,25.93,0000 0000 0000 0000 000000
2018-02-17 00:21:59,0.08,2.60,0.00,24.22,27.77,30.91,14.10,51.10,1021.51,2022.99,2482.51,2458.78,2749.55,600.22,596.72,25.98,0000 0000 0000 0000 000000
2018-02-17 00:27:00,0.08,2.61,0.00,24.23,27.77,30.92,13.96,51.09,1021.51,2022.99,2481.08,2457.91,2748.45,600.07,596.52,26.03,0000 0000 0000 0000 000000
2018-02-17 00:32:01,0.08,2.61,0.00,24.22,27.77,30.91,14.07,51.05,1021.51,2022.99,2479.75,2457.03,2747.36,600.28,596.65,26.08,0000 0000 0000 0000 000000
2018-02-17 00:37:02,0.09,2.62,0.00,24.23,27.77,30.90,14.02,51.07,1021.51,2022.99,2478.41,2456.12,2746.19,599.94,596.37,26.13,0000 0000 0000 0000 000000
2018-02-17 00:42:03,0.09,2.62,0.00,24.23,27.77,30.90,13.91,50.94,1021.51,2022.99,2476.93,2455.22,2745.11,599.79,596.20,26.18,0000 0000 0000 0000 000000
2018-02-17 00:47:05,0.09,2.63,0.00,24.24,27.77,30.90,14.02,51.09,1021.50,2022.99,2475.64,2454.34,2744.04,600.00,596.49,26.23,0000 0000 0000 0000 000000
2018-02-17 00:52:06,0.08,2.63,0.00,24.24,27.77,30.91,13.96,51.03,1021.50,2022.99,2474.27,2453.54,2742.91,600.04,596.31,26.28,0000 0000 0000 0000 000000
2018-02-17 00:57:08,0.09,2.64,0.00,24.25,27.77,30.92,14.00,51.17,1021.50,2023.00,2472.92,2452.65,2741.82,599.81,596.22,26.33,0000 0000 0000 0000 000000
2018-02-17 01:02:09,0.09,2.64,0.00,24.28,27.77,30.92,13.98,51.17,1021.50,2023.00,2471.57,2451.75,2740.73,600.07,596.32,26.38,0000 0000 0000 0000 000000
2018-02-17 01:07:11,0.08,2.65,0.00,24.28,27.77,30.92,14.00,51.09,1021.50,2023.00,2470.15,2450.85,2739.62,600.39,596.70,26.43,0000 0000 0000 0000 000000
2018-02-17 01:12:12,0.09,2.65,0.00,24.28,27.77,30.92,13.95,51.12,1021.50,2023.00,2468.73,2449.92,2738.48,599.52,596.01,26.48,0000 0000 0000 0000 000000
2018-02-17 01:17:13,0.08,2.65,0.00,24.28,27.77,30.92,14.09,51.18,1021.52,2023.00,2467.42,2449.04,2737.38,600.22,596.72,26.53,0000 0000 0000 0000 000000
2018-02-17 01:22:15,0.08,2.66,0.00,24.28,27.77,30.92,14.00,51.03,1021.50,2023.00,2466.11,2448.13,2736.29,599.98,596.34,26.58,0000 0000 0000 0000 000000
2018-02-17 01:27:16,0.09,2.66,0.00,24.27,27.77,30.93,14.02,51.13,1021.50,2023.00,2464.82,2447.32,2735.24,600.26,596.49,26.63,0000 0000 0000 0000 000000
2018-02-17 01:32:18,0.09,2.67,0.00,24.26,27.77,30.94,14.05,51.05,1021.50,2023.00,2463.56,2446.41,2734.13,600.13,596.45,26.68,0000 0000 0000 0000 000000
2018-02-17 01:37:19,0.08,2.67,0.00,24.27,27.77,30.93,13.92,51.03,1021.50,2023.00,2462.27,2445.64,2733.02,599.72,595.98,26.73,0000 0000 0000 0000 000000
2018-02-17 01:42:20,0.09,2.68,0.00,24.27,27.77,30.94,13.93,51.17,1021.50,2023.00,2460.83,2444.76,2731.96,599.85,596.30,26.78,0000 0000 0000 0000 000000
2018-02-17 01:47:21,0.11,2.68,0.00,24.27,27.77,30.93,14.01,51.28,1021.50,2022.99,2459.48,2443.69,2730.70,599.96,596.23,26.83,0000 0000 0000 0000 000000
2018-02-17 01:52:22,0.08,2.69,0.00,24.27,27.77,30.94,13.99,51.15,1021.51,2022.98,2457.94,2442.87,2729.57,599.89,596.16,26.88,0000 0000 0000 0000 000000
2018-02-17 01:57:23,0.09,2.69,0.00,24.28,27.78,30.94,14.08,51.38,1021.50,2022.98,2456.61,2442.00,2728.57,600.32,596.65,26.93,0000 0000 0000 0000 000000
2018-02-17 02:02:24,0.08,2.70,0.00,24.29,27.78,30.95,13.95,51.38,1021.50,2022.99,2455.35,2441.11,2727.47,599.66,595.99,26.98,0000 0000 0000 0000 000000
2018-02-17 02:07:26,0.09,2.70,0.00,24.29,27.78,30.94,14.05,51.49,1021.52,2022.99,2453.97,2440.20,2726.39,600.24,596.47,27.03,0000 0000 0000 0000 000000
2018-02-17 02:12:27,0.09,2.70,0.00,24.30,27.78,30.93,14.03,51.46,1021.51,2022.99,2452.65,2439.42,2725.35,600.15,596.42,27.08,0000 0000 0000 0000 000000
2018-02-17 02:17:28,0.08,2.71,0.00,24.30,27.78,30.95,14.01,51.60,1021.51,2022.98,2451.29,2438.52,2724.25,599.67,596.03,27.13,0000 0000 0000 0000 000000
2018-02-17 02:22:29,0.08,2.71,0.00,24.27,27.77,30.93,14.03,51.55,1021.51,2022.99,2449.90,2437.69,2723.18,600.10,596.29,27.18,0000 0000 0000 0000 000000
2018-02-17 02:27:31,0.07,2.72,0.00,24.27,27.77,30.93,14.02,51.50,1021.51,2022.99,2448.64,2436.88,2722.22,599.94,596.21,27.23,0000 0000 0000 0000 000000
2018-02-17 02:32:32,0.08,2.72,0.00,24.27,27.77,30.94,13.98,51.39,1021.50,2022.99,2447.36,2436.00,2721.14,600.01,596.21,27.28,0000 0000 0000 0000 000000
2018-02-17 02:37:33,0.08,2.73,0.00,24.27,27.77,30.94,13.98,51.22,1021.50,2022.98,2446.14,2435.14,2720.14,600.06,596.34,27.33,0000 0000 0000 0000 000000
2018-02-17 02:42:35,0.08,2.73,0.00,24.27,27.77,30.92,14.02,51.36,1021.50,2022.99,2444.93,2434.41,2719.11,599.67,595.95,27.38,0000 0000 0000 0000 000000
2018-02-17 02:47:36,0.09,2.73,0.00,24.27,27.77,30.93,13.99,51.38,1021.50,2022.99,2443.66,2433.57,2718.02,599.98,596.39,27.43,0000 0000 0000 0000 000000
2018-02-17 02:52:37,0.07,2.74,0.00,24.26,27.77,30.93,14.10,51.47,1021.51,2022.99,2442.35,2432.78,2716.96,600.18,596.49,27.48,0000 0000 0000 0000 000000
2018-02-17 02:57:38,0.08,2.74,0.00,24.27,27.77,30.92,13.99,51.48,1021.52,2022.99,2441.00,2431.93,2715.91,599.66,596.03,27.53,0000 0000 0000 0000 000000
2018-02-17 03:02:39,0.09,2.75,0.00,24.27,27.77,30.94,14.09,51.43,1021.53,2022.98,2439.67,2431.06,2714.82,600.18,596.55,27.58,0000 0000 0000 0000 000000
2018-02-17 03:07:41,0.09,2.75,0.00,24.27,27.77,30.93,13.99,51.41,1021.53,2022.99,2438.39,2430.18,2713.74,600.06,596.37,27.63,0000 0000 0000 0000 000000
2018-02-17 03:12:42,0.09,2.76,0.00,24.28,27.77,30.93,13.98,51.45,1021.53,2022.98,2436.97,2429.33,2712.66,600.20,596.40,27.68,0000 0000 0000 0000 000000
2018-02-17 03:17:43,0.09,2.76,0.00,24.30,27.77,30.91,14.06,51.34,1021.54,2022.98,2435.64,2428.46,2711.60,600.12,596.43,27.73,0000 0000 0000 0000 000000
2018-02-17 03:22:44,0.08,2.77,0.00,24.31,27.77,30.92,14.03,51.49,1021.59,2022.98,2434.34,2427.63,2710.47,599.95,596.28,27.78,0000 0000 0000 0000 000000
2018-02-17 03:27:45,0.08,2.77,0.00,24.29,27.77,30.91,13.99,51.46,1021.63,2022.96,2433.03,2426.76,2709.42,599.85,596.23,27.83,0000 0000 0000 0000 000000
2018-02-17 03:32:47,0.08,2.77,0.00,24.29,27.77,30.93,14.01,51.38,1021.67,2022.98,2431.76,2425.91,2708.40,599.74,596.25,27.88,0000 0000 0000 0000 000000
2018-02-17 03:37:48,0.09,2.78,0.00,24.28,27.77,30.92,14.07,51.34,1021.67,2022.98,2430.51,2425.05,2707.37,599.94,596.31,27.93,0000 0000 0000 0000 000000
2018-02-17 03:42:49,0.08,2.78,0.00,24.27,27.77,30.92,13.99,51.45,1021.61,2022.98,2429.24,2424.19,2706.31,599.94,596.35,27.98,0000 0000 0000 0000 000000
2018-02-17 03:47:50,0.09,2.79,0.00,24.28,27.76,30.90,13.97,51.48,1021.55,2022.99,2427.88,2423.39,2705.31,600.04,596.45,28.03,0000 0000 0000 0000 000000
2018-02-17 03:52:52,0.09,2.79,0.00,24.29,27.75,30.90,14.04,51.42,1021.58,2022.99,2426.61,2422.61,2704.28,600.07,596.33,28.08,0000 0000 0000 0000 000000
2018-02-17 03:57:53,0.08,2.80,0.00,24.29,27.75,30.90,13.99,51.56,1021.56,2022.99,2425.26,2421.73,2703.19,599.97,596.30,28.13,0000 0000 0000 0000 000000
2018-02-17 04:02:54,0.08,2.80,0.00,24.28,27.75,30.90,14.09,51.54,1021.70,2022.99,2423.89,2420.84,2702.12,600.23,596.73,28.18,0000 0000 0000 0000 000000
2018-02-17 04:07:55,0.08,2.81,0.00,24.27,27.75,30.90,14.08,51.60,1021.56,2022.99,2422.74,2420.04,2701.19,600.22,596.60,28.23,0000 0000 0000 0000 000000
2018-02-17 04:12:57,0.08,2.81,0.00,24.26,27.75,30.90,14.00,51.54,1021.58,2022.99,2421.50,2419.21,2700.20,600.15,596.55,28.29,0000 0000 0000 0000 000000
2018-02-17 04:17:58,0.08,2.81,0.00,24.25,27.75,30.88,13.96,51.53,1021.56,2022.99,2420.25,2418.42,2699.18,600.13,596.54,28.34,0000 0000 0000 0000 000000
2018-02-17 04:22:59,0.08,2.82,0.00,24.25,27.75,30.89,14.01,51.58,1021.54,2022.99,2419.01,2417.66,2698.18,599.65,596.07,28.39,0000 0000 0000 0000 000000
2018-02-17 04:28:01,0.08,2.82,0.00,24.26,27.75,30.89,14.02,51.50,1021.55,2022.99,2417.68,2416.82,2697.13,599.90,596.28,28.44,0000 0000 0000 0000 000000
2018-02-17 04:33:02,0.07,2.83,0.00,24.24,27.75,30.90,14.10,51.59,1021.54,2022.99,2416.44,2416.02,2696.12,600.04,596.48,28.49,0000 0000 0000 0000 000000
2018-02-17 04:38:04,0.09,2.83,0.00,24.21,27.74,30.89,13.95,51.50,1021.53,2022.99,2415.18,2415.21,2695.10,599.75,596.25,28.54,0000 0000 0000 0000 000000
2018-02-17 04:43:05,0.09,2.84,0.00,24.19,27.73,30.90,14.04,51.50,1021.57,2022.99,2413.80,2414.32,2694.05,600.06,596.60,28.59,0000 0000 0000 0000 000000
2018-02-17 04:48:06,0.08,2.84,0.00,24.20,27.72,30.89,14.01,51.72,1021.64,2022.99,2412.56,2413.56,2692.99,599.98,596.48,28.64,0000 0000 0000 0000 000000
2018-02-17 04:53:08,0.08,2.84,0.00,24.19,27.72,30.88,14.08,51.60,1021.88,2022.99,2411.31,2412.73,2692.00,600.18,596.91,28.69,0000 0000 0000 0000 000000
2018-02-17 04:58:09,0.07,2.85,0.00,24.16,27.72,30.88,14.02,51.64,1021.89,2022.99,2410.01,2411.94,2691.00,599.75,596.61,28.74,0000 0000 0000 0000 000000
2018-02-17 05:03:10,0.08,2.85,0.00,24.19,27.72,30.86,14.02,51.69,1021.92,2022.99,2408.73,2411.08,2690.03,599.94,596.87,28.79,0000 0000 0000 0000 000000
2018-02-17 05:08:11,0.08,2.86,0.00,24.18,27.72,30.87,14.01,51.67,1021.96,2022.99,2407.57,2410.27,2689.10,600.05,596.86,28.84,0000 0000 0000 0000 000000
2018-02-17 05:13:13,0.07,2.86,0.00,24.17,27.71,30.86,14.06,51.71,1021.94,2023.00,2406.47,2409.67,2688.21,600.07,596.87,28.89,0000 0000 0000 0000 000000
2018-02-17 05:18:14,0.07,2.87,0.00,24.17,27.70,30.86,13.96,51.72,1021.96,2023.00,2405.23,2408.84,2687.25,599.95,596.69,28.94,0000 0000 0000 0000 000000
2018-02-17 05:23:15,0.08,2.87,0.00,24.15,27.70,30.85,14.07,51.67,1021.99,2023.00,2403.93,2407.97,2686.28,599.93,596.85,28.99,0000 0000 0000 0000 000000
2018-02-17 05:28:17,0.09,2.88,0.00,24.15,27.70,30.84,13.98,51.72,1021.99,2023.00,2402.66,2407.08,2685.17,599.88,596.70,29.04,0000 0000 0000 0000 000000
2018-02-17 05:33:18,0.09,2.88,0.00,24.13,27.70,30.84,14.02,51.73,1021.97,2023.00,2401.42,2406.25,2684.17,599.78,596.77,29.09,0000 0000 0000 0000 000000
2018-02-17 05:38:20,0.08,2.88,0.00,24.12,27.68,30.81,14.00,51.75,1021.98,2023.00,2400.18,2405.42,2683.14,599.82,596.70,29.14,0000 0000 0000 0000 000000
2018-02-17 05:43:21,0.08,2.89,0.00,24.08,27.67,30.80,14.08,51.77,1021.99,2023.00,2398.98,2404.75,2682.24,600.22,597.30,29.19,0000 0000 0000 0000 000000
2018-02-17 05:48:22,0.08,2.89,0.00,24.08,27.67,30.79,14.03,51.83,1021.99,2023.00,2397.66,2403.91,2681.17,599.97,596.97,29.24,0000 0000 0000 0000 000000
2018-02-17 05:53:23,0.08,2.90,0.00,24.11,27.67,30.80,14.07,51.81,1021.99,2023.02,2396.50,2403.07,2680.17,600.15,597.07,29.29,0000 0000 0000 0000 000000
2018-02-17 05:58:25,0.08,2.90,0.00,24.12,27.65,30.81,13.98,51.70,1022.00,2023.02,2395.20,2402.23,2679.21,599.61,596.50,29.34,0000 0000 0000 0000 000000
2018-02-17 06:03:26,0.09,2.91,0.00,24.12,27.65,30.80,14.00,51.59,1022.03,2023.02,2393.83,2401.41,2678.15,599.91,596.72,29.39,0000 0000 0000 0000 000000
2018-02-17 06:08:27,0.09,2.91,0.00,24.10,27.65,30.79,14.08,51.69,1022.02,2023.02,2392.61,2400.61,2677.15,599.67,596.66,29.44,0000 0000 0000 0000 000000
2018-02-17 06:13:28,0.06,2.91,0.00,24.08,27.63,30.77,14.05,51.66,1022.06,2023.02,2391.40,2399.87,2676.15,600.17,597.21,29.49,0000 0000 0000 0000 000000
2018-02-17 06:18:29,0.08,2.92,0.00,24.08,27.62,30.76,13.99,51.73,1022.08,2023.05,2390.04,2398.98,2675.18,599.79,596.84,29.54,0000 0000 0000 0000 000000
2018-02-17 06:23:31,0.10,2.92,0.00,24.08,27.62,30.77,14.09,51.73,1022.16,2023.02,2388.72,2398.08,2674.15,600.05,597.04,29.59,0000 0000 0000 0000 000000
2018-02-17 06:28:32,0.10,2.93,0.00,24.08,27.62,30.74,14.01,51.68,1022.18,2023.09,2387.34,2397.15,2673.10,600.43,597.55,29.64,0000 0000 0000 0000 000000
2018-02-17 06:33:33,0.09,2.93,0.00,24.06,27.61,30.73,14.05,51.78,1022.21,2023.16,2386.13,2396.42,2672.09,599.90,597.08,29.69,0000 0000 0000 0000 000000
2018-02-17 06:38:35,0.10,2.94,0.00,24.05,27.60,30.76,14.02,51.63,1022.27,2023.28,2384.95,2395.66,2671.11,600.01,597.23,29.74,0000 0000 0000 0000 000000
2018-02-17 06:43:36,0.08,2.94,0.00,24.03,27.60,30.73,13.98,51.72,1022.27,2023.25,2383.70,2394.79,2670.03,600.02,597.34,29.79,0000 0000 0000 0000 000000
2018-02-17 06:48:37,0.08,2.95,0.00,24.01,27.60,30.74,14.04,51.74,1022.26,2023.31,2382.50,2393.95,2669.00,599.95,597.24,29.84,0000 0000 0000 0000 000000
2018-02-17 06:53:39,0.08,2.95,0.00,24.01,27.59,30.74,14.03,51.77,1022.33,2023.35,2381.29,2393.09,2668.00,599.72,597.05,29.89,0000 0000 0000 0000 000000
2018-02-17 06:58:40,0.10,2.96,0.00,24.01,27.58,30.72,13.99,51.58,1022.44,2023.54,2380.10,2392.31,2667.04,599.82,597.23,29.94,0000 0000 0000 0000 000000
2018-02-17 07:03:41,0.10,2.96,0.00,24.01,27.57,30.72,14.08,51.77,1022.41,2023.70,2378.78,2391.58,2665.99,599.89,597.28,29.99,0000 0000 0000 0000 000000
2018-02-17 07:08:43,0.08,2.96,0.00,24.01,27.57,30.73,14.05,51.80,1022.47,2023.55,2377.47,2390.63,2664.93,600.21,597.74,30.04,0000 0000 0000 0000 000000
2018-02-17 07:13:44,0.08,2.97,0.00,24.00,27.57,30.70,14.07,51.68,1022.48,2023.69,2376.24,2389.86,2663.97,600.08,597.53,30.09,0000 0000 0000 0000 000000
2018-02-17 07:18:45,0.09,2.98,0.00,23.99,27.56,30.69,13.99,51.81,1022.48,2023.73,2374.87,2389.03,2662.97,599.66,597.22,30.14,0000 0000 0000 0000 000000
2018-02-17 07:23:46,0.11,2.98,0.00,24.00,27.55,30.70,14.04,51.82,1022.48,2023.82,2373.62,2388.14,2661.96,599.98,597.47,30.19,0000 0000 0000 0000 000000
2018-02-17 07:28:47,0.09,2.98,0.00,23.98,27.55,30.70,14.05,51.83,1022.50,2023.92,2372.48,2387.46,2660.99,599.88,597.38,30.24,0000 0000 0000 0000 000000
2018-02-17 07:33:49,0.07,2.99,0.00,23.98,27.55,30.69,14.07,51.73,1022.50,2023.90,2371.30,2386.69,2660.00,600.05,597.57,30.29,0000 0000 0000 0000 000000
2018-02-17 07:38:50,0.07,2.99,0.00,23.97,27.55,30.69,14.05,51.70,1022.50,2023.91,2370.05,2385.91,2659.03,600.16,597.67,30.34,0000 0000 0000 0000 000000
2018-02-17 07:43:52,0.09,3.00,0.00,23.96,27.54,30.66,14.04,51.78,1022.50,2023.97,2368.84,2385.06,2658.10,600.06,597.61,30.39,0000 0000 0000 0000 000000
2018-02-17 07:48:53,0.09,3.00,0.00,23.96,27.53,30.68,14.12,51.75,1022.49,2023.95,2367.62,2384.28,2657.07,600.15,597.69,30.44,0000 0000 0000 0000 000000
2018-02-17 07:53:55,0.08,3.01,0.00,23.97,27.52,30.68,14.06,51.72,1022.49,2023.95,2366.55,2383.48,2656.07,599.86,597.40,30.49,0000 0000 0000 0000 000000
2018-02-17 07:58:56,0.08,3.01,0.00,23.97,27.52,30.67,14.06,51.98,1022.49,2023.95,2365.35,2382.71,2655.11,600.02,597.47,30.54,0000 0000 0000 0000 000000
2018-02-17 08:03:57,0.07,3.02,0.00,23.95,27.52,30.66,13.98,51.92,1022.53,2023.96,2364.14,2381.90,2654.09,599.77,597.36,30.59,0000 0000 0000 0000 000000
2018-02-17 08:08:59,0.08,3.02,0.00,23.95,27.52,30.67,14.12,51.91,1022.65,2023.96,2362.94,2381.08,2653.11,600.20,597.90,30.64,0000 0000 0000 0000 000000
2018-02-17 08:14:00,0.09,3.02,0.00,23.95,27.52,30.67,14.08,51.92,1022.81,2023.95,2361.77,2380.34,2652.17,600.21,597.97,30.69,0000 0000 0000 0000 000000
2018-02-17 08:19:02,0.10,3.03,0.00,23.96,27.52,30.66,14.06,51.77,1022.93,2023.95,2360.42,2379.33,2651.01,600.14,597.99,30.74,0000 0000 0000 0000 000000
2018-02-17 08:24:03,0.08,3.03,0.00,23.95,27.51,30.65,14.03,51.77,1022.93,2023.98,2359.17,2378.50,2649.87,599.87,597.63,30.79,0000 0000 0000 0000 000000
2018-02-17 08:29:04,0.08,3.04,0.00,23.94,27.50,30.64,14.03,51.86,1022.95,2023.97,2357.87,2377.70,2648.91,600.09,597.82,30.84,0000 0000 0000 0000 000000
2018-02-17 08:34:05,0.08,3.04,0.00,23.95,27.50,30.65,14.11,51.83,1022.97,2023.98,2356.69,2376.95,2647.91,600.06,597.89,30.89,0000 0000 0000 0000 000000
2018-02-17 08:39:06,0.08,3.05,0.00,23.95,27.50,30.65,14.08,51.77,1022.98,2023.98,2355.53,2376.09,2646.95,600.04,597.79,30.94,0000 0000 0000 0000 000000
2018-02-17 08:44:08,0.08,3.05,0.00,23.95,27.50,30.65,14.12,51.75,1023.00,2023.98,2354.32,2375.32,2645.94,600.12,597.99,30.99,0000 0000 0000 0000 000000
2018-02-17 08:49:09,0.07,3.06,0.00,23.95,27.50,30.63,14.02,51.67,1023.01,2023.97,2353.08,2374.54,2645.01,599.79,597.75,31.04,0000 0000 0000 0000 000000
2018-02-17 08:54:10,0.07,3.06,0.00,23.93,27.50,30.63,14.03,51.71,1023.00,2023.98,2351.94,2373.87,2644.10,600.27,598.34,31.09,0000 0000 0000 0000 000000
2018-02-17 08:59:11,0.09,3.06,0.00,23.92,27.50,30.64,13.99,51.76,1022.99,2023.99,2350.73,2373.04,2643.16,599.83,597.69,31.14,0000 0000 0000 0000 000000
2018-02-17 09:04:13,0.09,3.07,0.00,23.92,27.50,30.62,14.07,51.78,1023.00,2023.98,2349.56,2372.22,2642.16,599.98,597.91,31.19,0000 0000 0000 0000 000000
2018-02-17 09:09:14,0.08,3.07,0.00,23.94,27.50,30.62,14.09,51.84,1023.07,2023.99,2348.39,2371.54,2641.25,600.09,598.03,31.24,0000 0000 0000 0000 000000
2018-02-17 09:14:16,0.06,3.08,0.00,23.95,27.49,30.63,14.09,51.82,1023.11,2023.99,2347.26,2370.86,2640.33,600.03,597.97,31.29,0000 0000 0000 0000 000000
2018-02-17 09:19:17,0.08,3.08,0.00,23.94,27.48,30.62,14.11,51.75,1023.38,2023.99,2346.05,2370.03,2639.41,600.18,598.30,31.34,0000 0000 0000 0000 000000
2018-02-17 09:24:18,0.09,3.08,0.00,23.96,27.47,30.64,14.01,51.84,1023.39,2023.98,2344.81,2369.17,2638.50,599.66,597.74,31.39,0000 0000 0000 0000 000000
2018-02-17 09:29:19,0.09,3.09,0.00,23.96,27.47,30.63,14.00,51.82,1023.45,2023.99,2343.66,2368.50,2637.55,599.76,597.87,31.44,0000 0000 0000 0000 000000
2018-02-17 09:34:20,0.06,3.09,0.00,23.95,27.47,30.62,14.08,51.76,1023.45,2023.98,2342.55,2367.83,2636.66,600.33,598.38,31.49,0000 0000 0000 0000 000000
2018-02-17 09:39:21,0.07,3.10,0.00,23.94,27.47,30.61,14.00,51.70,1023.45,2023.98,2341.36,2367.05,2635.74,600.17,598.29,31.55,0000 0000 0000 0000 000000
2018-02-17 09:44:22,0.08,3.10,0.00,23.94,27.47,30.61,14.07,51.77,1023.45,2023.98,2340.19,2366.41,2634.77,599.79,597.93,31.60,0000 0000 0000 0000 000000
2018-02-17 09:49:24,0.05,3.10,0.00,23.94,27.47,30.62,14.04,51.74,1023.45,2023.99,2339.12,2365.86,2633.93,599.88,598.11,31.65,0000 0000 0000 0000 000000
2018-02-17 09:54:25,0.08,3.11,0.00,23.94,27.47,30.60,14.06,51.81,1023.45,2023.99,2337.97,2365.05,2633.03,600.12,598.19,31.70,0000 0000 0000 0000 000000
2018-02-17 09:59:26,0.09,3.11,0.00,23.95,27.47,30.61,14.03,51.78,1023.45,2023.99,2336.77,2364.22,2632.12,599.88,598.03,31.75,0000 0000 0000 0000 000000
2018-02-17 10:04:28,0.09,3.12,0.00,23.94,27.47,30.62,14.08,51.88,1023.45,2023.99,2335.59,2363.49,2631.14,599.81,597.95,31.80,0000 0000 0000 0000 000000
2018-02-17 10:09:29,0.08,3.12,0.00,23.93,27.47,30.61,14.05,51.87,1023.48,2023.99,2334.46,2362.69,2630.13,599.95,598.06,31.85,0000 0000 0000 0000 000000
2018-02-17 10:14:30,0.06,3.13,0.00,23.92,27.47,30.61,14.03,51.80,1023.50,2023.99,2333.29,2361.98,2629.22,599.92,598.13,31.90,0000 0000 0000 0000 000000
2018-02-17 10:19:31,0.08,3.13,0.00,23.92,27.47,30.61,14.02,51.82,1023.47,2023.98,2332.04,2361.16,2628.31,599.63,597.80,31.95,0000 0000 0000 0000 000000
2018-02-17 10:24:33,0.08,3.13,0.00,23.93,27.47,30.63,14.00,51.77,1023.49,2023.98,2330.90,2360.44,2627.43,599.78,597.98,32.00,0000 0000 0000 0000 000000
2018-02-17 10:29:34,0.07,3.14,0.00,23.92,27.47,30.62,13.97,51.81,1023.51,2023.99,2329.71,2359.75,2626.55,599.74,597.91,32.05,0000 0000 0000 0000 000000
2018-02-17 10:34:36,0.08,3.14,0.00,23.93,27.47,30.62,13.99,51.80,1023.81,2023.99,2328.60,2358.92,2625.59,599.81,598.20,32.10,0000 0000 0000 0000 000000
2018-02-17 10:39:37,0.09,3.15,0.00,23.95,27.47,30.63,14.08,51.78,1023.88,2023.99,2327.38,2358.05,2624.59,600.00,598.38,32.15,0000 0000 0000 0000 000000
2018-02-17 10:44:38,0.08,3.15,0.00,23.95,27.47,30.63,14.03,51.83,1023.91,2023.98,2326.17,2357.31,2623.65,600.02,598.42,32.20,0000 0000 0000 0000 000000
2018-02-17 10:49:39,0.07,3.15,0.00,23.96,27.47,30.62,14.15,51.86,1023.92,2023.99,2325.03,2356.62,2622.91,600.27,598.64,32.25,0000 0000 0000 0000 000000
2018-02-17 10:54:40,0.07,3.16,0.00,23.97,27.47,30.63,14.04,51.70,1023.94,2023.98,2323.82,2355.92,2621.98,600.11,598.46,32.30,0000 0000 0000 0000 000000
2018-02-17 10:59:42,0.09,3.16,0.00,23.97,27.47,30.62,14.12,51.77,1023.94,2023.99,2322.66,2355.06,2621.02,600.32,598.46,32.35,0000 0000 0000 0000 000000
2018-02-17 11:04:43,0.08,3.17,0.00,23.98,27.47,30.63,14.05,51.80,1023.95,2023.98,2321.53,2354.24,2620.09,599.97,598.33,32.40,0000 0000 0000 0000 000000
2018-02-17 11:09:44,0.08,3.17,0.00,23.97,27.47,30.65,14.17,51.79,1023.95,2023.98,2320.35,2353.56,2619.17,600.07,598.42,32.45,0000 0000 0000 0000 000000
2018-02-17 11:14:45,0.06,3.18,0.00,23.97,27.47,30.65,14.12,51.72,1024.00,2023.98,2319.17,2352.86,2618.26,600.21,598.56,32.50,0000 0000 0000 0000 000000
2018-02-17 11:19:47,0.08,3.18,0.00,23.98,27.47,30.65,14.10,51.67,1024.02,2023.98,2317.97,2352.07,2617.31,600.09,598.48,32.55,0000 0000 0000 0000 000000
2018-02-17 11:24:48,0.09,3.18,0.00,23.97,27.48,30.64,14.08,51.72,1024.11,2023.99,2316.76,2351.29,2616.36,600.06,598.50,32.60,0000 0000 0000 0000 000000
2018-02-17 11:29:49,0.09,3.19,0.00,23.98,27.49,30.66,14.13,51.84,1024.27,2023.99,2315.59,2350.53,2615.45,600.00,598.49,32.65,0000 0000 0000 0000 000000
2018-02-17 11:34:51,0.06,3.19,0.00,23.98,27.50,30.66,14.04,51.83,1024.35,2023.97,2314.43,2349.82,2614.55,600.05,598.63,32.70,0000 0000 0000 0000 000000
2018-02-17 11:39:52,0.08,3.20,0.00,23.98,27.50,30.66,14.00,51.81,1024.37,2023.94,2313.17,2349.02,2613.59,600.10,598.70,32.75,0000 0000 0000 0000 000000
2018-02-17 11:44:54,0.08,3.20,0.00,23.99,27.50,30.66,14.20,51.82,1024.36,2023.96,2312.02,2348.25,2612.68,600.48,599.03,32.81,0000 0000 0000 0000 000000
2018-02-17 11:49:55,0.08,3.20,0.00,24.00,27.50,30.67,14.02,51.64,1024.37,2023.94,2310.87,2347.46,2611.78,599.74,598.41,32.86,0000 0000 0000 0000 000000
2018-02-17 11:54:56,0.06,3.21,0.00,24.02,27.50,30.68,14.12,51.72,1024.40,2023.91,2309.69,2346.82,2610.83,600.01,598.54,32.91,0000 0000 0000 0000 000000
2018-02-17 11:59:58,0.08,3.21,0.00,24.02,27.50,30.68,14.11,51.80,1024.42,2023.89,2308.55,2345.99,2609.83,600.05,598.59,32.96,0000 0000 0000 0000 000000
2018-02-17 12:04:59,0.07,3.22,0.00,24.01,27.51,30.69,14.08,51.86,1024.43,2023.69,2307.27,2345.10,2608.86,600.21,598.85,33.01,0000 0000 0000 0000 000000
2018-02-17 12:10:00,0.09,3.22,0.00,24.02,27.52,30.69,14.09,51.93,1024.43,2023.76,2306.11,2344.40,2607.98,600.09,598.69,33.06,0000 0000 0000 0000 000000
2018-02-17 12:15:01,0.09,3.23,0.00,24.03,27.52,30.67,14.05,51.77,1024.43,2023.77,2304.90,2343.68,2607.03,599.82,598.30,33.11,0000 0000 0000 0000 000000
2018-02-17 12:20:03,0.06,3.23,0.00,24.04,27.52,30.70,14.10,51.77,1024.43,2023.67,2303.62,2342.86,2606.04,600.08,598.54,33.16,0000 0000 0000 0000 000000
2018-02-17 12:25:04,0.09,3.23,0.00,24.02,27.52,30.71,14.04,51.88,1024.43,2023.72,2302.54,2342.05,2605.09,599.79,598.30,33.21,0000 0000 0000 0000 000000
2018-02-17 12:30:05,0.09,3.24,0.00,24.04,27.52,30.72,14.06,51.77,1024.43,2023.73,2301.38,2341.25,2604.15,600.00,598.60,33.26,0000 0000 0000 0000 000000
2018-02-17 12:35:06,0.05,3.24,0.00,24.04,27.54,30.73,14.00,51.80,1024.43,2023.42,2300.13,2340.45,2603.17,599.92,598.59,33.31,0000 0000 0000 0000 000000
2018-02-17 12:40:08,0.08,3.25,0.00,24.05,27.55,30.71,14.15,51.79,1024.43,2023.46,2298.88,2339.75,2602.26,600.18,598.68,33.36,0000 0000 0000 0000 000000
2018-02-17 12:45:09,0.10,3.25,0.00,24.07,27.55,30.71,14.05,51.76,1024.43,2023.58,2297.80,2339.02,2601.35,600.07,598.51,33.41,0000 0000 0000 0000 000000
2018-02-17 12:50:10,0.05,3.26,0.00,24.08,27.55,30.72,14.13,51.80,1024.43,2023.48,2296.68,2338.23,2600.45,600.25,598.69,33.46,0000 0000 0000 0000 000000
2018-02-17 12:55:11,0.06,3.26,0.00,24.08,27.55,30.74,14.02,51.77,1024.44,2023.20,2295.53,2337.48,2599.48,600.31,598.48,33.51,0000 0000 0000 0000 000000